This demonstration page uses our WeatherBlox Daily Observations layout. Learn more.

Left ArrowRight Arrow

Hourly Observations for May 15, 2021

Temp ( °F °C ) Dew Point ( °F °C ) Humidity (%) Winds ( mph kmh ) Pressure ( in mb ) Visibility ( mi km ) Precip ( " mm )
12:51 am 00:51 Clear 76 24.4 33 0.6 21 21 NNW 13 20 29.72 1006 10 16 N/A
1:51 am 01:51 Clear 76 24.4 32 undefined 20 20 NNW 14 22 29.71 1006 10 16 N/A
2:51 am 02:51 Clear 74 23.3 28 -2.2 18 18 NNW 13 20 29.72 1006 10 16 N/A
3:51 am 03:51 Mostly Clear 73 22.8 39 3.9 29 29 N 6 9 29.73 1007 10 16 N/A
4:51 am 04:51 Mostly Cloudy 71 21.7 36 2.2 28 28 S 7 11 29.75 1007 10 16 N/A
5:51 am 05:51 Partly Cloudy 68 20 33 0.6 27 27 N N/A 29.76 1008 10 16 N/A
6:51 am 06:51 Sunny 73 22.8 35 1.7 25 25 SSE 5 7 29.77 1008 10 16 N/A
7:51 am 07:51 Sunny 78 25.6 34 1.1 20 20 N N/A 29.78 1008 10 16 N/A
8:51 am 08:51 Sunny 82 27.8 38 3.3 21 21 E 6 9 29.75 1008 10 16 N/A
9:51 am 09:51 Mostly Sunny 86 30 42 5.6 21 21 S 15 24 29.74 1007 10 16 N/A
10:51 am 10:51 Sunny 87 30.6 42 5.6 21 21 SSE 10 17 29.73 1007 10 16 N/A
11:51 am 11:51 Sunny 90 32.2 39 3.9 17 17 undefined N/A 29.71 1006 10 16 N/A
12:51 pm 12:51 Sunny 91 32.8 32 undefined 12 12 SSW 16 26 29.68 1005 10 16 N/A
12:58 pm 12:58 Sunny 90 32 30 -1 12 12 SSW 8 13 29.59 1002 10 16 N/A
1:51 pm 13:51 Sunny 93 33.9 29 -1.7 10 10 S 13 20 29.64 1004 10 16 N/A
2:51 pm 14:51 Sunny 91 32.8 27 -2.8 10 10 WSW 9 15 29.61 1003 10 16 N/A
3:51 pm 15:51 Sunny 92 33.3 22 -5.6 8 8 S 3 6 29.59 1002 10 16 N/A
4:51 pm 16:51 Sunny 93 33.9 25 -3.9 8 8 W 13 20 29.57 1002 10 16 N/A
5:51 pm 17:51 Sunny 92 33.3 22 -5.6 8 8 WSW 20 31 29.59 1002 10 16 N/A
6:51 pm 18:51 Sunny 89 31.7 23 -5 9 9 W 16 26 29.59 1002 10 16 N/A
7:51 pm 19:51 Clear 85 29.4 27 -2.8 12 12 WNW 15 24 29.61 1003 10 16 N/A
8:51 pm 20:51 Clear 79 26.1 27 -2.8 15 15 WNW 8 13 29.64 1004 10 16 N/A
9:51 pm 21:51 Clear 79 26.1 27 -2.8 15 15 NW 17 28 29.66 1004 10 16 N/A
10:51 pm 22:51 Clear 76 24.4 22 -5.6 13 13 NW 13 20 29.68 1005 10 16 N/A
11:51 pm 23:51 Clear 76 24.4 22 -5.6 13 13 NW 13 20 29.69 1005 10 16 N/A

Powered by AerisWeather